Regional Weather Roundup
Issued by NWS Newport/Morehead, NC

Current Version | Previous Version | Graphics & Text | Print | Product List | Glossary Off
Versions: 1 2 3 4 5 6 7 8 9 10 11 12 13 14 15 16 17 18 19 20 21 22 23 24 25 26 27 28 29 30 31 32 33 34 35 36 37 38 39 40 41 42 43 44 45 46 47 48 49 50

000
ASUS42 KMHX 131013
RWRMHX
WEATHER ROUNDUP FOR EASTERN NORTH CAROLINA
NATIONAL WEATHER SERVICE NEWPORT/MOREHEAD CITY NC
500 AM EST WED DEC 13 2017

NOTE: "FAIR" INDICATES FEW OR NO CLOUDS BELOW 12,000 FEET
WITH NO SIGNIFICANT WEATHER AND/OR OBSTRUCTIONS TO VISIBILITY

NCZ015>017-031-032-045>047-102-103-131100-
NORTH COAST

CITY           SKY/WX    TMP DP  RH WIND       PRES   REMARKS
EDENTON        CLEAR     31  12  45 NW9       29.87R
ELIZABETH CITY CLEAR     25   8  48 W7        29.85R
KITTY HAWK     SUNNY     29   7  39 NW14G21   29.82R WCI  18
MANTEO         PTCLDY    29  10  44 N14G23    29.84R WCI  19

$$

NCZ045>047-081-094-103-104-131100-
CENTRAL COAST

CITY           SKY/WX    TMP DP  RH WIND       PRES   REMARKS
FRISCO         CLEAR     32  12  43 NW18G32   29.85R

$$

NCZ095-097-098-100-101-131100-
SOUTHERN COAST

CITY           SKY/WX    TMP DP  RH WIND       PRES   REMARKS
BEAUFORT       CLEAR     32  15  49 NW22G30   29.91R WCI  19
CEDAR ISLAND   NOT AVBL
JACKSONVILLE   CLEAR     29  17  61 NW10      29.92R WCI  20
PINEY ISLAND     N/A    N/A N/A N/A NW18G28   29.89R
WILMINGTON     CLEAR     31  15  52 NW8       29.93R


$$

NCZ011>013-027>030-043-044-078>080-089-090>093-098-131100-
COASTAL PLAIN

CITY           SKY/WX    TMP DP  RH WIND       PRES   REMARKS
AHOSKIE        CLEAR     26   7  44 W3        29.87R
CLINTON        CLEAR     30  16  56 W5        29.94R
ELIZABETHTOWN  NOT AVBL
GOLDSBORO      CLEAR     28  12  50 W5        29.90R
GREENVILLE     CLEAR     30  10  43 NW6       29.92R
HAVELOCK       CLEAR     30  12  47 NW13      29.92R WCI  20
KENANSVILLE    CLEAR     28  12  50 W3        29.92R
KINSTON        CLEAR     29  12  49 NW6       29.92R
NEW BERN       CLEAR     28  13  53 NW9       29.92R
RICHLANDS      CLEAR     28  17  63 CALM      29.93R
ROCKY MOUNT    CLEAR     28   9  44 W9        29.90R
WASHINGTON     CLEAR     29  10  45 NW7       29.90R
WHITEVILLE     CLEAR     30  19  62 CALM      29.94R

$$

AMZ130-135-150-152-154-156-158-170-250-252-270-ANZ085-086-088-633-658-670-131100-
MARINE OBSERVATIONS

STATION/POSITION TIME  TEMP    WIND        PRES    WAVE   SWELL
                       AIR SEA DIR/SP/G            HT/PER HT/PER
                 (UTC) (F)     (DEG/KT/KT) (MB)    (FT/S) (FT/S)
CHESAPEAKE LIGHT NOT AVBL
64 E VA BEACH    0950   34 59  300/ 25/ 35 1007.4   11/ 8
DUCK             0942   30 55  300/ 14/ 22 1009.4
2 E DUCK         0930      56                N/A     5/ 7
OREGON INLET     0942   31 45  300/ 21/ 27 1009.8
13E OREGON INLT  0948      58                N/A     8/ 7   3/15
HATTERAS CG      0942   34 53  310/ 25/ 31 1010.2
DIAMOND BUOY     1000   37 73  310/ 29/ 39 1010.4
CAPE LOOKOUT     1000          320/ 20/ 27 1012.6
BEAUFORT LAB     0942   33 52  330/ 15/ 23 1012.2
30 SE NEW RVR IN 0908   39 63  360/ 17/ 25 1011.6
30 SE NEW RVR IN 0930      63                N/A     7/ 5
27 SE WRIGHTSVLE 0908   40 65  320/ 23/ 35 1011.9
5 SE WRIGHTSVLE  0908   37 57  330/ 16/ 23 1011.9
225 S CAPE HAT   0950   61 75  310/ 27/ 33 1007.1   14/11   7/11
41 SE CHARLESTON 1000   47 74  330/ 16/ 23 1013.2

$$



USA.gov is the U.S. government's official web portal to all federal, state and local government web resources and services.